Regional Weather Roundup
Issued by NWS

Home | Current Version | Previous Version | Text Only | Print | Product List | Glossary On
Versions: 1 2 3 4 5 6 7 8 9 10 11 12 13 14 15 16 17 18 19 20 21 22 23 24 25 26 27
000
ASPQ40 PGUM 250712
RWRPQ
WEATHER ROUNDUP FOR THE MARIANAS AND MICRONESIA
NATIONAL WEATHER SERVICE TIYAN GU
500 PM CHST TUE JUL 25 2017

GUZ001>004-250800-
MARIANA ISLANDS-

CITY           SKY/WX    TMP DP  RH WIND       PRES   REMARKS
GUAM AIRPORT   MOSUNNY   86  79  79 S9        29.80S HX  99
ANDERSEN AFB   SUNNY     86  77  74 S10       29.82R HX  97
ROTA AIRPORT   MOSUNNY   84  77  79 S10       29.81S HX  94
TINIAN AP      MOSUNNY   86  75  70 S10       29.78  HX  95
SAIPAN AP      MOSUNNY   90  77  66 S8        29.79S HX 102

$$

PMZ161-250800-
REPUBLIC OF PALAU-

CITY           SKY/WX    TMP DP  RH WIND       PRES   REMARKS
KOROR AP       LGT RAIN  81  75  83 SW10G18   29.76S
KOROR WSO      CLOUDY    82  75  78 S15       29.78R

$$

PMZ171>174-250800-
FEDERATED STATES OF MICRONESIA-

CITY           SKY/WX    TMP DP  RH WIND       PRES   REMARKS
YAP AIRPORT    PTSUNNY   88  77  70 SW9       29.71F HX 100
CHUUK AP       LGT RAIN  81  75  83 VRB3      29.76R
POHNPEI AP     NOT AVBL
POHNPEI WSO    CLOUDY    82  79  89 NE3       29.79R HX  93
KOSRAE AP      NOT AVBL

$$

PMZ181-250800-
REPUBLIC OF THE MARSHALL ISLANDS-

CITY           SKY/WX    TMP DP  RH WIND       PRES   REMARKS
KWAJALEIN AP   PTCLDY    86  77  74 E13       29.79R HX  97
MAJURO AP      NOT AVBL
MAJURO WSO     MOCLDY    84  75  74 E10       29.77R HX  92

$$





USA.gov is the U.S. government's official web portal to all federal, state and local government web resources and services.